When you browse on this site, cookies collect data to enhance your experience and personalize the content and advertising you see.
Visit our Privacy Policy to learn more. By continuing to use the site, you agree to this use of cookies and data.
  • En España
  • Lista de países
  • Para 7 días
  • Temperatura del agua
  • Mapa Satelital
  • El tiempo en el mapa
  • Informadores
  • user-avatar
    Iniciar sesión

    Tiempo cada hora Sekondi

    Hoy, 23 Enero, Miércoles

    Tiempo Temperatura Precipitaciones Viento Presión Humedad
    00:00 +29°C° 0 mm 4 mps 758 mmHg 86%
    01:00 +28°C° 0 mm 3 mps 757 mmHg 87%
    02:00 +28°C° 0 mm 3 mps 757 mmHg 88%
    03:00 +28°C° 0 mm 3 mps 757 mmHg 89%
    04:00 +28°C° 0 mm 3 mps 757 mmHg 90%
    05:00 +28°C° 0 mm 2 mps 757 mmHg 90%
    06:00 +28°C° 0 mm 2 mps 757 mmHg 90%
    07:00 +29°C° 0 mm 2 mps 758 mmHg 84%
    08:00 +30°C° 0 mm 3 mps 758 mmHg 78%
    09:00 +31°C° 0 mm 3 mps 758 mmHg 72%
    10:00 +31°C° 0 mm 3 mps 758 mmHg 72%
    11:00 +31°C° 0 mm 3 mps 758 mmHg 71%
    12:00 +33°C° 0 mm 3 mps 758 mmHg 70%
    13:00 +33°C° 0.1 mm 3 mps 757 mmHg 67%
    14:00 +34°C° 0.1 mm 3 mps 757 mmHg 65%
    15:00 +34°C° 0.1 mm 4 mps 756 mmHg 62%
    16:00 +33°C° 0.1 mm 4 mps 756 mmHg 66%
    17:00 +33°C° 0.1 mm 4 mps 756 mmHg 70%
    18:00 +32°C° 0.1 mm 5 mps 756 mmHg 75%
    19:00 +30°C° 0.3 mm 4 mps 757 mmHg 78%
    20:00 +29°C° 0.3 mm 4 mps 757 mmHg 81%
    21:00 +29°C° 0.3 mm 4 mps 758 mmHg 85%
    22:00 +29°C° 0 mm 4 mps 758 mmHg 85%
    23:00 +29°C° 0 mm 5 mps 758 mmHg 86%

    Mañana, 24 Enero, Jueves

    Tiempo Temperatura Precipitaciones Viento Presión Humedad
    00:00 +28°C° 0 mm 5 mps 758 mmHg 87%
    01:00 +28°C° 0 mm 5 mps 757 mmHg 88%
    02:00 +28°C° 0 mm 4 mps 757 mmHg 89%
    03:00 +28°C° 0 mm 4 mps 756 mmHg 89%
    04:00 +28°C° 0 mm 4 mps 756 mmHg 90%
    05:00 +28°C° 0 mm 4 mps 756 mmHg 90%
    06:00 +28°C° 0 mm 3 mps 756 mmHg 91%
    07:00 +29°C° 0 mm 3 mps 757 mmHg 85%
    08:00 +30°C° 0 mm 4 mps 758 mmHg 80%
    09:00 +32°C° 0 mm 4 mps 758 mmHg 74%
    10:00 +33°C° 0 mm 4 mps 758 mmHg 71%
    11:00 +33°C° 0 mm 4 mps 758 mmHg 68%
    12:00 +34°C° 0 mm 4 mps 758 mmHg 65%
    13:00 +34°C° 0.6 mm 4 mps 757 mmHg 66%
    14:00 +34°C° 0.6 mm 4 mps 756 mmHg 66%
    15:00 +33°C° 0.6 mm 4 mps 756 mmHg 66%
    16:00 +32°C° 1.2 mm 4 mps 756 mmHg 71%
    17:00 +30°C° 1.2 mm 4 mps 756 mmHg 75%
    18:00 +29°C° 1.2 mm 3 mps 756 mmHg 80%
    19:00 +29°C° 0.3 mm 3 mps 757 mmHg 82%
    20:00 +28°C° 0.3 mm 3 mps 758 mmHg 84%
    21:00 +28°C° 0.3 mm 3 mps 758 mmHg 86%
    22:00 +28°C° 0 mm 3 mps 758 mmHg 86%
    23:00 +28°C° 0 mm 3 mps 758 mmHg 87%

    Pasado mañana, 25 Enero, Viernes

    Tiempo Temperatura Precipitaciones Viento Presión Humedad
    00:00 +27°C° 0 mm 3 mps 758 mmHg 87%
    01:00 +27°C° 0 mm 3 mps 757 mmHg 88%
    02:00 +27°C° 0 mm 3 mps 756 mmHg 88%
    03:00 +27°C° 0 mm 4 mps 756 mmHg 89%
    04:00 +27°C° 0 mm 3 mps 756 mmHg 89%
    05:00 +27°C° 0 mm 3 mps 756 mmHg 90%
    06:00 +27°C° 0 mm 3 mps 756 mmHg 90%
    07:00 +28°C° 0 mm 3 mps 757 mmHg 85%
    08:00 +29°C° 0 mm 3 mps 758 mmHg 80%
    09:00 +31°C° 0 mm 3 mps 758 mmHg 74%
    10:00 +33°C° 0 mm 3 mps 758 mmHg 70%
    11:00 +34°C° 0 mm 4 mps 758 mmHg 65%
    12:00 +35°C° 0 mm 4 mps 758 mmHg 60%
    13:00 +35°C° 0.1 mm 4 mps 757 mmHg 61%
    14:00 +34°C° 0.1 mm 4 mps 756 mmHg 62%
    15:00 +34°C° 0.1 mm 4 mps 755 mmHg 63%
    16:00 +33°C° 0 mm 4 mps 755 mmHg 67%
    17:00 +32°C° 0 mm 4 mps 756 mmHg 70%
    18:00 +32°C° 0 mm 4 mps 756 mmHg 74%
    19:00 +30°C° 0 mm 4 mps 757 mmHg 76%
    20:00 +30°C° 0 mm 4 mps 757 mmHg 79%
    21:00 +29°C° 0 mm 4 mps 758 mmHg 82%
    22:00 +29°C° 0 mm 4 mps 758 mmHg 83%
    23:00 +29°C° 0 mm 4 mps 758 mmHg 84%

    26 Enero, Sábado

    Tiempo Temperatura Precipitaciones Viento Presión Humedad
    00:00 +29°C° 0 mm 4 mps 758 mmHg 85%
    01:00 +28°C° 0 mm 4 mps 757 mmHg 85%
    02:00 +28°C° 0 mm 4 mps 757 mmHg 86%
    03:00 +28°C° 0 mm 3 mps 756 mmHg 87%
    04:00 +28°C° 0 mm 3 mps 756 mmHg 87%
    05:00 +28°C° 0 mm 3 mps 757 mmHg 88%
    06:00 +28°C° 0 mm 3 mps 757 mmHg 88%
    07:00 +29°C° 0 mm 3 mps 757 mmHg 83%
    08:00 +30°C° 0 mm 4 mps 758 mmHg 78%
    09:00 +32°C° 0 mm 4 mps 759 mmHg 72%
    10:00 +33°C° 0.2 mm 4 mps 758 mmHg 70%
    11:00 +34°C° 0.2 mm 4 mps 758 mmHg 67%
    12:00 +34°C° 0.2 mm 4 mps 758 mmHg 65%
    13:00 +34°C° 0.7 mm 4 mps 757 mmHg 66%
    14:00 +34°C° 0.7 mm 4 mps 756 mmHg 66%
    15:00 +34°C° 0.7 mm 4 mps 756 mmHg 67%
    16:00 +33°C° 0.1 mm 4 mps 756 mmHg 71%
    17:00 +32°C° 0.1 mm 4 mps 756 mmHg 74%
    18:00 +30°C° 0.1 mm 4 mps 757 mmHg 78%
    19:00 +30°C° 0 mm 4 mps 757 mmHg 80%
    20:00 +29°C° 0 mm 5 mps 758 mmHg 83%
    21:00 +29°C° 0 mm 5 mps 758 mmHg 85%
    22:00 +29°C° 0 mm 5 mps 758 mmHg 86%
    23:00 +29°C° 0 mm 5 mps 758 mmHg 87%

    27 Enero, Domingo

    Tiempo Temperatura Precipitaciones Viento Presión Humedad
    00:00 +28°C° 0 mm 5 mps 758 mmHg 87%
    01:00 +28°C° 0 mm 5 mps 757 mmHg 88%
    02:00 +28°C° 0 mm 4 mps 757 mmHg 88%
    03:00 +28°C° 0 mm 4 mps 756 mmHg 88%
    04:00 +28°C° 0 mm 4 mps 756 mmHg 89%
    05:00 +28°C° 0 mm 4 mps 757 mmHg 89%
    06:00 +28°C° 0 mm 4 mps 757 mmHg 90%
    07:00 +29°C° 0 mm 3 mps 757 mmHg 85%
    08:00 +30°C° 0 mm 3 mps 758 mmHg 80%
    09:00 +31°C° 0 mm 3 mps 759 mmHg 75%
    10:00 +31°C° 0.5 mm 3 mps 758 mmHg 73%
    11:00 +33°C° 0.5 mm 3 mps 758 mmHg 71%
    12:00 +33°C° 0.5 mm 3 mps 758 mmHg 69%
    13:00 +33°C° 0.8 mm 4 mps 757 mmHg 69%
    14:00 +33°C° 0.8 mm 4 mps 756 mmHg 70%
    15:00 +33°C° 0.8 mm 4 mps 756 mmHg 71%
    16:00 +32°C° 0 mm 4 mps 756 mmHg 74%
    17:00 +30°C° 0 mm 4 mps 756 mmHg 76%
    18:00 +30°C° 0 mm 4 mps 757 mmHg 79%
    19:00 +29°C° 0 mm 4 mps 757 mmHg 81%
    20:00 +29°C° 0 mm 4 mps 758 mmHg 84%
    21:00 +28°C° 0 mm 3 mps 758 mmHg 86%
    22:00 +28°C° 0.5 mm 4 mps 758 mmHg 87%
    23:00 +28°C° 0.5 mm 4 mps 758 mmHg 88%

    28 Enero, Lunes

    Tiempo Temperatura Precipitaciones Viento Presión Humedad
    00:00 +28°C° 0.5 mm 4 mps 758 mmHg 89%
    01:00 +28°C° 0 mm 4 mps 757 mmHg 89%
    02:00 +28°C° 0 mm 4 mps 757 mmHg 90%
    03:00 +28°C° 0 mm 4 mps 756 mmHg 90%
    04:00 +28°C° 0 mm 4 mps 756 mmHg 90%
    05:00 +28°C° 0 mm 4 mps 756 mmHg 90%
    06:00 +28°C° 0 mm 3 mps 757 mmHg 91%
    07:00 +29°C° 0 mm 3 mps 757 mmHg 85%
    08:00 +30°C° 0 mm 3 mps 758 mmHg 80%
    09:00 +31°C° 0 mm 3 mps 758 mmHg 75%
    10:00 +33°C° 0.2 mm 4 mps 758 mmHg 72%
    11:00 +33°C° 0.2 mm 4 mps 757 mmHg 69%
    12:00 +34°C° 0.2 mm 4 mps 757 mmHg 66%
    13:00 +34°C° 0.8 mm 4 mps 756 mmHg 67%
    14:00 +33°C° 0.8 mm 4 mps 756 mmHg 69%
    15:00 +33°C° 0.8 mm 4 mps 755 mmHg 70%
    16:00 +32°C° 0.8 mm 4 mps 756 mmHg 74%
    17:00 +30°C° 0.8 mm 4 mps 756 mmHg 78%
    18:00 +30°C° 0.8 mm 3 mps 756 mmHg 82%
    19:00 +29°C° 0 mm 3 mps 757 mmHg 84%
    20:00 +29°C° 0 mm 3 mps 757 mmHg 86%
    21:00 +28°C° 0 mm 3 mps 758 mmHg 88%
    22:00 +28°C° 0 mm 3 mps 758 mmHg 88%
    23:00 +28°C° 0 mm 3 mps 757 mmHg 88%
    Mostrar más